This is the latest recevied weather packets stored in our database for station/object HUGOCO. If no packets are shown the sender has not sent any weather packets the latest 10 day(s).
| Time | Temp. | Humidity | Pressure | Rain* | Wind** | Luminosity | Snow |
|---|---|---|---|---|---|---|---|
| 1777946460 | 15.56° C | 40% | 1002.9 hPa | 0 mm | - | - | - |
| 1777946160 | 16.11° C | 40% | 1002.9 hPa | 0 mm | - | - | - |
| 1777945860 | 16.11° C | 40% | 1002.9 hPa | 0 mm | - | - | - |
| 1777945560 | 16.11° C | 39% | 1002.9 hPa | 0 mm | - | - | - |
| 1777945260 | 16.11° C | 38% | 1003.1 hPa | 0 mm | - | - | - |
| 1777944960 | 16.67° C | 38% | 1002.9 hPa | 0 mm | - | - | - |
| 1777944660 | 16.67° C | 38% | 1002.8 hPa | 0 mm | - | - | - |
| 1777944361 | 16.67° C | 38% | 1003 hPa | 0 mm | - | - | - |
| 1777944061 | 17.22° C | 36% | 1003 hPa | 0 mm | - | - | - |
| 1777943760 | 17.78° C | 34% | 1003 hPa | 0 mm | - | - | - |
| 1777943461 | 18.33° C | 30% | 1002.7 hPa | 0 mm | - | - | - |
| 1777943161 | 18.33° C | 31% | 1002.7 hPa | 0 mm | - | - | - |
| 1777942861 | 17.78° C | 30% | 1002.7 hPa | 0 mm | - | - | - |
| 1777942561 | 17.78° C | 31% | 1002.8 hPa | 0 mm | - | - | - |
| 1777942261 | 18.33° C | 28% | 1002.7 hPa | 0 mm | - | - | - |
| 1777941961 | 18.89° C | 29% | 1002.7 hPa | 0 mm | - | - | - |
| 1777941661 | 18.89° C | 27% | 1002.6 hPa | 0 mm | - | - | - |
| 1777941361 | 18.89° C | 27% | 1002.7 hPa | 0 mm | - | - | - |
| 1777941061 | 18.89° C | 29% | 1002.6 hPa | 0 mm | - | - | - |
| 1777940761 | 18.89° C | 28% | 1002.4 hPa | 0 mm | - | - | - |
| 1777940461 | 19.44° C | 27% | 1002.5 hPa | 0 mm | - | - | - |
| 1777940161 | 19.44° C | 26% | 1002.3 hPa | 0 mm | - | - | - |
| 1777939861 | 19.44° C | 27% | 1002.2 hPa | 0 mm | - | - | - |
| 1777939561 | 19.44° C | 26% | 1002.2 hPa | 0 mm | - | - | - |
| 1777939261 | 19.44° C | 27% | 1002.5 hPa | 0 mm | - | - | - |
* Rain latest hour (hover to see other rain measurements)
** Current wind speed in m/s (hover to see current wind gust speed)